Location: Brest
(52.1000°N, 23.7000°E)
Time: 04:18:11
(UTC+03:00)

Envisat - Visible Passes

Search period start: 21 October 2017 00:00
Search period end: 30 October 2017 23:00
Orbit: 764 x 766 km, 98.2° (Epoch: 20 October)

Date Brightness Start Highest point End Pass type
(mag) Time Alt. Az. Time Alt. Az. Time Alt. Az.
21 Oct 4.1 19:40:43 19° E 19:42:48 25° ENE 19:46:53 10° N visible
21 Oct 3.3 21:20:56 58° SW 21:21:28 62° WSW 21:26:31 10° NNW visible
22 Oct 4.7 19:03:49 10° E 19:06:33 15° NE 19:09:17 10° NNE visible
22 Oct 2.9 20:43:57 59° ESE 20:44:44 70° ENE 20:49:48 10° N visible
22 Oct 5.2 22:24:10 20° W 22:24:17 20° W 22:28:01 10° NW visible
23 Oct 3.5 20:06:58 33° E 20:08:11 37° ENE 20:12:51 10° N visible
23 Oct 4.2 21:47:11 38° W 21:47:12 38° W 21:51:58 10° NNW visible
24 Oct 4.2 19:29:58 18° E 19:31:48 21° ENE 19:35:36 10° N visible
24 Oct 3.0 21:10:12 75° WSW 21:10:20 75° WSW 21:15:27 10° NNW visible
24 Oct 5.7 22:50:25 12° W 22:50:25 12° W 22:52:24 10° WNW visible
25 Oct 4.8 18:53:32 10° ENE 18:55:37 13° NE 18:57:42 10° NNE visible
25 Oct 3.0 20:33:13 56° E 20:33:39 58° ENE 20:38:39 10° N visible
25 Oct 5.0 22:13:25 24° W 22:13:25 24° W 22:17:11 10° NW visible
26 Oct 3.7 19:56:13 29° E 19:57:09 32° ENE 20:01:37 10° N visible
26 Oct 3.9 21:36:26 46° W 21:36:26 46° W 21:40:57 10° NNW visible
27 Oct 4.4 19:19:14 16° ENE 19:20:50 18° NE 19:24:14 10° NNE visible
27 Oct 2.9 20:59:26 82° NNW 20:59:26 82° NNW 21:04:21 10° NNW visible
27 Oct 5.6 22:39:39 15° WNW 22:39:39 15° WNW 22:41:58 10° NW visible
28 Oct 4.9 18:43:39 10° ENE 18:44:42 11° NE 18:45:44 10° NE visible
28 Oct 3.2 20:22:27 48° ENE 20:22:35 48° ENE 20:27:28 10° N visible
28 Oct 4.8 22:02:40 28° WNW 22:02:40 28° WNW 22:06:16 10° NNW visible
29 Oct 3.9 18:45:27 26° ENE 18:46:08 27° ENE 18:50:22 10° N visible
29 Oct 3.7 20:25:40 51° WNW 20:25:40 51° WNW 20:29:54 10° NNW visible
30 Oct 4.6 18:08:27 14° ENE 18:09:53 16° NE 18:12:50 10° NNE visible
30 Oct 3.0 19:48:40 67° NNE 19:48:40 67° NNE 19:53:12 10° NNW visible
30 Oct 5.5 21:28:53 17° WNW 21:28:53 17° WNW 21:31:17 10° NW visible
